{"data":{"norad_id":48769,"epoch":"2026-05-25T01:02:21.469056Z","epoch_age_seconds":85404,"freshness":"FRESH","line1":"1 48769U 21045C   26145.04330404 -.00000095  00000+0 -28750-3 0  9992","line2":"2 48769  87.8988 263.8158 0002062  98.6426 261.4938 13.15547124241623","mean_motion":13.15547124,"eccentricity":0.0002062,"inclination_deg":87.8988,"raan_deg":263.8158,"arg_perigee_deg":98.6426,"mean_anomaly_deg":261.4938,"bstar":-0.0002875,"rev_number":24162,"period_min":109.46016100294,"perigee_km":1200.2132668922,"apogee_km":1203.3392231144,"semimajor_km":7579.9132450033,"source":"CELESTRAK","updated_at":"2026-05-25T13:38:22.441587Z"}}